Change the Weather History Date:

Wednesday, April 3, 2013

  Actual Average Record
Temperature  
Mean Temperature 19 °F -  
Max Temperature 37 °F 38 °F 60 °F (2012)
Min Temperature 1 °F 20 °F 1 °F (2013)
Degree Days  
Heating Degree Days 46    
Moisture  
Dew Point 4 °F    
Average Humidity 45    
Maximum Humidity 72    
Minimum Humidity 24    
Precipitation  
Precipitation 0.00 in - - ()
Sea Level Pressure  
Sea Level Pressure 30.21 in    
Wind  
Wind Speed 2 mph (SSW)    
Max Wind Speed 15 mph    
Max Gust Speed 22 mph    
Visibility 10 miles    
Events      
Averages and records for this station are not official NWS values.
T = Trace of Precipitation, MM = Missing Value Source: NWS Daily Summary

Daily Weather History Graph

Daily Weather History Graph

Search for Another Location

Airport or City:

Trip Planner

Search our weather history database for the weather conditions in past years. The results will help you decide how hot, cold, wet, or windy it might be!

Date:

Astronomy

Apr. 03, 2013 Rise Set
Actual Time 6:40 AM CDT 7:38 PM CDT
Civil Twilight 6:09 AM CDT 8:09 PM CDT
Nautical Twilight 5:31 AM CDT 8:46 PM CDT
Astronomical Twilight 4:52 AM CDT 9:26 PM CDT
Moon 2:46 AM CDT (4/3) 12:26 PM CDT (4/3)
Length of Visible Light 14h 00m
Length of Day
12h 58m
Last Quarter, 44% of the Moon is Illuminated
Apr 3
Last Quarter
Apr 10
New
Apr 18
First Quarter
Apr 25
Full
May 2
Last Quarter

Hourly Weather History & Observations

Time (CDT) Temp. Windchill Dew Point Humidity Pressure Visibility Wind Dir Wind Speed Gust Speed Precip Events Conditions
12:13 AM 15.8 °F - -5.8 °F 38% 30.30 in 10.0 mi Calm Calm - N/A   Clear
12:33 AM 15.8 °F - -7.6 °F 35% 30.31 in 10.0 mi Calm Calm - N/A   Clear
12:53 AM 12.2 °F - -2.2 °F 53% 30.31 in 10.0 mi Calm Calm - N/A   Clear
1:13 AM 10.4 °F - -5.8 °F 48% 30.31 in 10.0 mi Calm Calm - N/A   Clear
1:33 AM 10.4 °F - -4.0 °F 52% 30.32 in 10.0 mi Calm Calm - N/A   Clear
1:53 AM 8.6 °F - -4.0 °F 57% 30.32 in 10.0 mi Calm Calm - N/A   Clear
2:13 AM 8.6 °F - -5.8 °F 52% 30.33 in 10.0 mi Calm Calm - N/A   Clear
2:33 AM 8.6 °F - -4.0 °F 57% 30.32 in 10.0 mi Calm Calm - N/A   Clear
2:53 AM 6.8 °F - -2.2 °F 67% 30.33 in 10.0 mi Calm Calm - N/A   Clear
3:13 AM 5.0 °F - -2.2 °F 72% 30.33 in 10.0 mi Calm Calm - N/A   Clear
3:33 AM 6.8 °F - -4.0 °F 61% 30.33 in 10.0 mi Calm Calm - N/A   Clear
3:53 AM 5.0 °F - -4.0 °F 66% 30.33 in 10.0 mi Calm Calm - N/A   Clear
4:13 AM 5.0 °F - -5.8 °F 61% 30.33 in 10.0 mi Calm Calm - N/A   Clear
4:33 AM 3.2 °F - -5.8 °F 66% 30.33 in 10.0 mi Calm Calm - N/A   Clear
4:53 AM 3.2 °F - -5.8 °F 66% 30.33 in 10.0 mi Calm Calm - N/A   Clear
5:13 AM 3.2 °F - -5.8 °F 66% 30.33 in 10.0 mi Calm Calm - N/A   Clear
5:33 AM 3.2 °F - -4.0 °F 72% 30.33 in 10.0 mi Calm Calm - N/A   Clear
5:53 AM 1.4 °F - -5.8 °F 72% 30.33 in 10.0 mi Calm Calm - N/A   Clear
6:13 AM 1.4 °F - -5.8 °F 72% 30.33 in 10.0 mi Calm Calm - N/A   Clear
6:34 AM 1.4 °F - -5.8 °F 72% 30.34 in 10.0 mi Calm Calm - N/A   Clear
6:53 AM 1.4 °F - -5.8 °F 72% 30.34 in 10.0 mi Calm Calm - N/A   Clear
7:13 AM 3.2 °F - -4.0 °F 72% 30.34 in 10.0 mi Calm Calm - N/A   Clear
7:33 AM 8.6 °F - -2.2 °F 62% 30.34 in 10.0 mi Calm Calm - N/A   Clear
7:53 AM 12.2 °F - -0.4 °F 57% 30.33 in 10.0 mi Calm Calm - N/A   Clear
8:13 AM 17.6 °F - -0.4 °F 45% 30.34 in 10.0 mi Calm Calm - N/A   Clear
8:33 AM 21.2 °F - 1.4 °F 42% 30.34 in 10.0 mi Calm Calm - N/A   Clear
8:53 AM 26.6 °F - 3.2 °F 37% 30.34 in 10.0 mi Calm Calm - N/A   Clear
9:13 AM 33.8 °F - 3.2 °F 28% 30.34 in 10.0 mi Calm Calm - N/A   Clear
9:33 AM 32.0 °F - 6.8 °F 35% 30.33 in 10.0 mi Calm Calm - N/A   Clear
9:53 AM 30.2 °F 21.3 °F 6.8 °F 37% 30.33 in 10.0 mi SSW 10.4 mph - N/A   Clear
10:14 AM 30.2 °F 20.8 °F 3.2 °F 32% 30.33 in 10.0 mi South 11.5 mph - N/A   Clear
10:33 AM 30.2 °F 21.9 °F 5.0 °F 34% 30.33 in 10.0 mi South 9.2 mph 16.1 mph N/A   Clear
10:53 AM 30.2 °F - 5.0 °F 34% 30.33 in 10.0 mi Calm Calm - N/A   Clear
11:13 AM 32.0 °F 24.2 °F 1.4 °F 27% 30.32 in 10.0 mi SW 9.2 mph - N/A   Clear
11:33 AM 33.8 °F 25.8 °F 1.4 °F 25% 30.32 in 10.0 mi SSW 10.4 mph - N/A   Clear
11:53 AM 33.8 °F 25.3 °F 1.4 °F 25% 30.31 in 10.0 mi SSW 11.5 mph - N/A   Clear
12:13 PM 33.8 °F 24.8 °F 3.2 °F 28% 30.30 in 10.0 mi South 12.7 mph - N/A   Clear
12:33 PM 35.6 °F 27.1 °F 1.4 °F 24% 30.28 in 10.0 mi South 12.7 mph 16.1 mph N/A   Clear
12:53 PM 35.6 °F 26.6 °F 1.4 °F 24% 30.27 in 10.0 mi South 13.8 mph 20.7 mph N/A   Clear
1:13 PM 35.6 °F 26.2 °F 3.2 °F 26% 30.26 in 10.0 mi SW 15.0 mph 19.6 mph N/A   Clear
1:33 PM 35.6 °F 27.5 °F 3.2 °F 26% 30.24 in 10.0 mi SSW 11.5 mph 21.9 mph N/A   Clear
1:53 PM 37.4 °F 29.8 °F 3.2 °F 24% 30.22 in 10.0 mi South 11.5 mph 17.3 mph N/A   Clear
2:13 PM 37.4 °F 30.3 °F 3.2 °F 24% 30.20 in 10.0 mi SSW 10.4 mph 18.4 mph N/A   Clear
2:33 PM 37.4 °F 29.8 °F 5.0 °F 26% 30.19 in 10.0 mi South 11.5 mph - N/A   Clear
2:54 PM 37.4 °F 30.8 °F 5.0 °F 26% 30.18 in 10.0 mi South 9.2 mph - N/A   Clear
3:13 PM 37.4 °F 33.8 °F 6.8 °F 28% 30.17 in 10.0 mi SSE 4.6 mph - N/A   Scattered Clouds
3:33 PM 37.4 °F 33.8 °F 8.6 °F 30% 30.16 in 10.0 mi SSE 4.6 mph - N/A   Scattered Clouds
3:53 PM 37.4 °F - 6.8 °F 28% 30.14 in 10.0 mi Calm Calm - N/A   Clear
4:13 PM 37.4 °F - 6.8 °F 28% 30.13 in 10.0 mi Calm Calm - N/A   Clear
4:33 PM 37.4 °F 32.8 °F 6.8 °F 28% 30.12 in 10.0 mi SSW 5.8 mph - N/A   Clear
4:53 PM 37.4 °F - 8.6 °F 30% 30.11 in 10.0 mi Calm Calm - N/A   Clear
5:13 PM 37.4 °F - 6.8 °F 28% 30.10 in 10.0 mi Calm Calm - N/A   Clear
5:33 PM 37.4 °F - 6.8 °F 28% 30.08 in 10.0 mi Calm Calm - N/A   Clear
5:53 PM 35.6 °F - 5.0 °F 28% 30.07 in 10.0 mi Calm Calm - N/A   Clear
6:13 PM 35.6 °F - 6.8 °F 30% 30.06 in 10.0 mi Calm Calm - N/A   Clear
6:33 PM 33.8 °F - 6.8 °F 32% 30.05 in 10.0 mi Calm Calm - N/A   Clear
6:53 PM 33.8 °F - 6.8 °F 32% 30.05 in 10.0 mi Calm Calm - N/A   Clear
7:13 PM 32.0 °F - 8.6 °F 38% 30.03 in 10.0 mi Calm Calm - N/A   Clear
7:33 PM 32.0 °F - 10.4 °F 41% 30.03 in 10.0 mi Calm Calm - N/A   Clear
7:53 PM 30.2 °F - 10.4 °F 44% 30.01 in 10.0 mi Calm Calm - N/A   Scattered Clouds
8:13 PM 30.2 °F - 12.2 °F 47% 30.01 in 10.0 mi Calm Calm - N/A   Scattered Clouds
8:33 PM 28.4 °F - 10.4 °F 47% 30.01 in 10.0 mi Calm Calm - N/A   Clear
8:53 PM 28.4 °F 20.4 °F 15.8 °F 59% 29.99 in 10.0 mi SW 8.1 mph - N/A   Scattered Clouds
9:14 PM 32.0 °F 24.2 °F 17.6 °F 55% 29.98 in 10.0 mi SW 9.2 mph 16.1 mph N/A   Mostly Cloudy
9:33 PM 33.8 °F 25.3 °F 19.4 °F 56% 29.98 in 10.0 mi SW 11.5 mph 18.4 mph N/A   Overcast
9:53 PM 33.8 °F 26.4 °F 19.4 °F 56% 29.97 in 10.0 mi SW 9.2 mph - N/A   Overcast
10:13 PM 33.8 °F 26.4 °F 19.4 °F 56% 29.96 in 10.0 mi SW 9.2 mph 20.7 mph N/A   Overcast
10:33 PM 33.8 °F 27.0 °F 19.4 °F 56% 29.95 in 10.0 mi SW 8.1 mph - N/A   Overcast
10:53 PM 33.8 °F 28.6 °F 19.4 °F 56% 29.95 in 10.0 mi WSW 5.8 mph - N/A   Overcast
11:13 PM 33.8 °F 30.8 °F 19.4 °F 56% 29.94 in 10.0 mi WSW 3.5 mph - N/A   Mostly Cloudy
11:33 PM 33.8 °F 27.7 °F 19.4 °F 56% 29.93 in 10.0 mi WSW 6.9 mph - N/A   Mostly Cloudy
11:53 PM 33.8 °F 27.0 °F 21.2 °F 60% 29.92 in 10.0 mi WSW 8.1 mph 16.1 mph N/A   Mostly Cloudy